Location: Brno
(49.2000°N, 16.6330°E)
Time: 16:47:23
(UTC+01:00)

BREEZE M DEB (TANK) - Visible Passes

Search period start: 25 February 2017 00:00
Search period end: 07 March 2017 00:00
Orbit: 295 x 11989 km, 49.5° (Epoch: 24 February)

Date Brightness Start Highest point End Pass type
(mag) Time Alt. Az. Time Alt. Az. Time Alt. Az.
25 Feb 6.2 01:36:59 41° SE 01:36:59 41° SE 01:44:57 10° E visible
25 Feb 3.7 05:29:23 14° W 05:40:36 88° N 05:44:36 10° E visible
26 Feb 6.5 00:51:19 30° ESE 00:51:19 30° ESE 00:57:15 10° E visible
26 Feb 4.1 04:43:42 25° WSW 04:52:47 86° SSE 04:57:31 10° E visible
27 Feb 6.9 00:05:36 20° E 00:05:36 20° E 00:09:09 10° E visible
27 Feb 4.6 03:57:59 37° WSW 04:04:50 77° SSE 04:10:25 10° ENE visible
27 Feb 7.2 23:19:50 11° E 23:19:50 11° E 23:20:21 10° E visible
28 Feb 5.0 03:12:12 50° SW 03:16:41 69° SSE 03:23:15 10° ENE visible
28 Feb7.422:34:01E22:34:01E21:44:33SSEvisible
01 Mar 5.4 02:26:23 57° S 02:28:17 60° SSE 02:36:00 10° ENE visible
02 Mar 5.8 01:40:31 52° SE 01:40:31 52° SE 01:48:38 10° ENE visible
02 Mar 3.5 05:32:52 12° W 05:44:13 87° N 05:47:59 10° E visible
03 Mar 6.2 00:54:36 40° ESE 00:54:36 40° ESE 01:01:06 10° ENE visible
03 Mar 4.0 04:46:57 22° W 04:56:22 88° N 05:00:49 10° E visible
03 Mar 6.6 23:18:54 10° S 00:08:39 28° E 00:13:18 10° ENE visible
04 Mar 4.4 04:00:59 34° WSW 04:08:22 87° SSE 04:13:37 10° E visible
04 Mar 6.9 22:30:43 10° S 23:22:39 18° E 23:25:07 10° E visible
05 Mar 4.8 03:14:59 47° WSW 03:20:11 79° SSE 03:26:23 10° ENE visible
05 Mar 7.2 21:45:20 10° SSE 22:36:36 - E 21:49:32 12° SSE visible
06 Mar 5.2 02:28:56 61° SSW 02:31:47 71° SSE 02:39:05 10° ENE visible
06 Mar 7.4 21:03:45 10° SSE 21:50:32 - ENE 21:04:23 10° SSE visible
